Tracking 17857 objects as of 30-September-2016
HD Live streaming from Space Station
objects crossing your sky now

ARIANE 5 R/B

Track ARIANE 5 R/B now!


NORAD ID: 29275
Int'l Code: 2006-033D
Perigee: 286.5 km
Apogee: 33,371.1 km
Inclination: 6.4 °
Period: 586.1 minutes
Semi major axis: 23199 km
RCS: 37.7588 m2 (large)
Launch date: August 11, 2006
Source: France (FR)
Launch site: FRENCH GUIANA (FRGUI)

Note: This is a ROCKET BODY
Your satellite tracking list
Your tracking list is empty





NASA's NSSDC Master Catalog

Two Line Element Set (TLE):
1 29275U 06033D   16273.43025694 +.00000717 +00000-0 +44764-3 0  9992
2 29275 006.3991 324.7568 7130344 093.7050 342.5567 02.45683717087444
Source of the keplerian elements: AFSPC

N2YO: 1079